User: anonymous   Login
Location: Unspecified
(0.0000°N, 0.0000°E)
Time: 03:06:40
(UTC+00:00)
Language:

AO-91 - Orbit

View from above orbital plane
View from above orbital plane
View from above satellite
View from above satellite

Ground track
Ground track

The orbit data is extracted from the following two-line orbital elements,

1 43017U 17073E   18116.76309757  .00000811  00000-0  68367-4 0  9998
2 43017  97.7052  50.0470 0261565  79.0712 283.9808 14.77992559 23511
Epoch (UTC): 26 April 2018 18:18:51
Eccentricity: 0.0261565
inclination: 97.7052°
perigee height: 452 km
apogee height: 819 km
right ascension of ascending node: 50.0470°
argument of perigee: 79.0712°
revolutions per day: 14.77992559
mean anomaly at epoch: 283.9808°
orbit number at epoch: 2351

The dashed part of the orbit path shows where the satellite is in the earth's shadow,  

DLR